Flag for Germany Weather past 2 weeks in Saarbrücken, Saarland, Germany

Now
64 °F

Light rain. Fog.


Feels Like: 64 °F
Forecast: 57 / 84 °F
Wind: 8 mph from Northwest

Location: Saarbruecken / Ensheim

Current Time: Aug 28, 2015 at 3:05:12 PM

Latest Report: Aug 28, 2015 at 2:20 PM


Visibility: 2 mi

Pressure: 30.09 "Hg

Humidity: 94%

Dew point: 63 °F

Location of SaarbrückenLocation

Historic Weather in Saarbrücken — Graph

°F

Saarbrücken temperature yesterday

Maximum temperature yesterday: 84 °F (at 4:20 PM)
Minimum temperature yesterday: 64 °F (at 7:20 AM)
Average temperature yesterday: 72 °F

Past Weeks' High & Low Weather Summary

 TemperatureHumidityPressure
High93 °F (Aug 13, 2:50 PM)100% (Aug 19, 7:20 AM)30.27 "Hg (Aug 19, 7:20 AM)
Low46 °F (Aug 19, 5:50 AM)20% (Aug 13, 5:20 PM)29.68 "Hg (Aug 24, 6:20 AM)
Average64 °F68%29.97 "Hg
* Reported Aug 13 1:20 PM — Aug 28 1:50 PM, Saarbrücken, Weather by CustomWeather, © 2015

Note: Actual official high and low records may vary slightly from our data, if they occured in-between our weather recording intervals... More about our weather records

Advertising

Saarbrücken weather history for previous 24 hours

 ConditionsComfort  
Time TempWeatherWind HumidityBarometerVisibility
1:50 PM
Fri, Aug 28
66 °FLight rain. Fog.7 mph94%30.09 "Hg2 mi
1:20 PM64 °FFog.6 mph94%30.09 "Hg3 mi
12:50 PM64 °FLight rain. Fog.6 mph94%30.07 "Hg2 mi
12:20 PM64 °FLight rain. Fog.7 mph94%30.07 "Hg2 mi
11:50 AM64 °FLight rain. Fog.10 mph94%30.07 "Hg2 mi
11:20 AM64 °FLight rain. Fog.10 mph100%30.04 "Hg2 mi
10:50 AM64 °FLight rain. Fog.10 mph94%30.04 "Hg1 mi
10:20 AM63 °FLight rain. Fog.3 mph94%30.04 "Hg2 mi
9:50 AM63 °FLight rain. Fog.5 mph94%30.04 "Hg2 mi
9:20 AM63 °FLight rain. Fog.7 mph100%30.01 "Hg2 mi
8:50 AM64 °FLight rain. Fog.7 mph94%30.01 "Hg2 mi
8:20 AM63 °FLight rain. Fog.3 mph94%30.01 "Hg2 mi
7:50 AM61 °FLight rain. Fog.2 mph94%30.01 "Hg2 mi
7:20 AM61 °FFog.3 mph94%29.98 "Hg2 mi
6:50 AM63 °FLight rain. Fog.5 mph94%29.98 "Hg1 mi
6:20 AM63 °FLight rain. Fog.5 mph94%29.98 "Hg2 mi
5:50 AM63 °FLight rain. Fog.5 mph94%29.98 "Hg2 mi
5:20 AM63 °FFog.6 mph94%29.98 "Hg2 mi
4:50 AM63 °FDrizzle. Fog.6 mph94%29.95 "Hg3 mi
4:20 AM63 °FLight rain. Low clouds.6 mph94%29.95 "Hg5 mi
3:50 AM63 °FLight rain. Low clouds.7 mph94%29.95 "Hg5 mi
3:20 AM63 °FClear.7 mph94%29.95 "Hg10 mi
2:50 AM63 °FClear.8 mph94%29.95 "Hg10 mi
2:20 AM63 °FClear.9 mph94%29.95 "Hg10 mi
1:50 AM63 °FMild.10 mph94%29.95 "Hg5 mi
1:20 AM63 °FClear.9 mph94%29.95 "Hg10 mi
12:50 AM63 °FMild.7 mph94%29.95 "Hg4 mi
12:20 AM63 °FMild.6 mph94%29.95 "Hg4 mi
11:50 PM
Thu, Aug 27
64 °FMild.10 mph88%29.95 "Hg2 mi
11:20 PM64 °FClear.13 mph88%29.92 "Hg10 mi
10:50 PM64 °FLight rain. Mostly cloudy.7 mph88%29.92 "HgN/A
10:20 PM66 °FLight rain. Mostly cloudy.8 mph83%29.89 "HgN/A
9:50 PM66 °FLight rain. Mostly cloudy.12 mph83%29.89 "HgN/A
9:20 PM70 °FLight rain. More clouds than sun.8 mph73%29.86 "HgN/A
8:50 PM70 °FLight rain. More clouds than sun.9 mph73%29.86 "HgN/A
8:20 PM72 °FBroken clouds.8 mph65%29.86 "HgN/A
7:50 PM73 °FBroken clouds.2 mph61%29.86 "HgN/A
7:20 PM73 °FLight rain. Partly sunny.9 mph61%29.86 "HgN/A
6:50 PM77 °FPartly sunny.13 mph51%29.83 "HgN/A
6:20 PM81 °FBroken clouds.14 mph37%29.83 "HgN/A
5:50 PM81 °FPartly sunny.14 mph34%29.83 "HgN/A
5:20 PM82 °FPartly sunny.15 mph35%29.83 "HgN/A
4:50 PM82 °FSunny.17 mph32%29.83 "Hg10 mi
4:20 PM84 °FPassing clouds.16 mph33%29.83 "HgN/A
3:50 PM81 °FPassing clouds.13 mph37%29.83 "HgN/A
3:20 PM82 °FSunny.18 mph35%29.86 "Hg10 mi
Weather by CustomWeather, © 2015

See weather overviewHow to use our weather pages